• In Spain
  • List of Countries
  • For 7 days
  • Water Temperature
  • Satellite Maps
  • Weather Map
  • Weather Widgets
  • user-avatar
    Login

    Hourly Weather Mishina Niva

    Today, 22 April, Sunday

    Time Temperature Precipitation Wind Pressure Humidity
    00:00 +2°C° 0 mm 5 mps 727 mmHg 78%
    01:00 +2°C° 0 mm 5 mps 728 mmHg 80%
    02:00 +3°C° 0 mm 3 mps 728 mmHg 83%
    03:00 +2°C° 0.1 mm 3 mps 728 mmHg 84%
    04:00 +1°C° 0.1 mm 4 mps 728 mmHg 85%
    05:00 0°C° 0.1 mm 4 mps 728 mmHg 86%
    06:00 +1°C° 0.1 mm 4 mps 729 mmHg 81%
    07:00 +1°C° 0.1 mm 4 mps 729 mmHg 77%
    08:00 +1°C° 0.1 mm 4 mps 730 mmHg 72%
    09:00 +3°C° 0 mm 4 mps 730 mmHg 69%
    10:00 +3°C° 0 mm 4 mps 731 mmHg 65%
    11:00 +4°C° 0 mm 4 mps 731 mmHg 62%
    12:00 +4°C° 0 mm 4 mps 731 mmHg 60%
    13:00 +4°C° 0 mm 4 mps 732 mmHg 59%
    14:00 +4°C° 0 mm 4 mps 732 mmHg 58%
    15:00 +4°C° 0 mm 4 mps 733 mmHg 58%
    16:00 +3°C° 0 mm 4 mps 733 mmHg 58%
    17:00 +3°C° 0 mm 4 mps 734 mmHg 58%
    18:00 +2°C° 0 mm 3 mps 734 mmHg 62%
    19:00 +1°C° 0 mm 3 mps 735 mmHg 66%
    20:00 +2°C° 0 mm 2 mps 735 mmHg 69%
    21:00 +1°C° 0 mm 2 mps 736 mmHg 73%
    22:00 -1°C° 0 mm 2 mps 736 mmHg 77%
    23:00 -2°C° 0 mm 2 mps 737 mmHg 81%

    Tomorrow, 23 April, Monday

    Time Temperature Precipitation Wind Pressure Humidity
    00:00 -3°C° 0 mm 2 mps 737 mmHg 82%
    01:00 -1°C° 0 mm 1 mps 738 mmHg 83%
    02:00 -1°C° 0 mm 1 mps 738 mmHg 83%
    03:00 -1°C° 0 mm 1 mps 738 mmHg 83%
    04:00 -1°C° 0 mm 1 mps 739 mmHg 82%
    05:00 -1°C° 0 mm 1 mps 739 mmHg 81%
    06:00 -2°C° 0 mm 2 mps 739 mmHg 70%
    07:00 +1°C° 0 mm 2 mps 739 mmHg 60%
    08:00 +2°C° 0 mm 2 mps 740 mmHg 49%
    09:00 +4°C° 0 mm 2 mps 740 mmHg 44%
    10:00 +5°C° 0 mm 2 mps 740 mmHg 39%
    11:00 +6°C° 0 mm 2 mps 739 mmHg 34%
    12:00 +7°C° 0 mm 2 mps 739 mmHg 34%
    13:00 +7°C° 0 mm 2 mps 739 mmHg 34%
    14:00 +8°C° 0 mm 2 mps 739 mmHg 33%
    15:00 +7°C° 0 mm 2 mps 739 mmHg 35%
    16:00 +7°C° 0 mm 2 mps 738 mmHg 37%
    17:00 +7°C° 0 mm 2 mps 738 mmHg 39%
    18:00 +6°C° 0 mm 1 mps 738 mmHg 47%
    19:00 +4°C° 0 mm 1 mps 738 mmHg 54%
    20:00 +2°C° 0 mm 1 mps 738 mmHg 61%
    21:00 +2°C° 0 mm 1 mps 738 mmHg 63%
    22:00 +1°C° 0 mm 1 mps 738 mmHg 65%
    23:00 +1°C° 0 mm 1 mps 738 mmHg 67%

    Day after tomorrow, 24 April, Tuesday

    Time Temperature Precipitation Wind Pressure Humidity
    00:00 0°C° 0 mm 1 mps 738 mmHg 68%
    01:00 0°C° 0 mm 1 mps 738 mmHg 69%
    02:00 0°C° 0 mm 1 mps 738 mmHg 70%
    03:00 -2°C° 0 mm 2 mps 738 mmHg 69%
    04:00 -2°C° 0 mm 2 mps 737 mmHg 69%
    05:00 -2°C° 0 mm 2 mps 737 mmHg 69%
    06:00 +1°C° 0 mm 2 mps 737 mmHg 62%
    07:00 +4°C° 0 mm 2 mps 737 mmHg 55%
    08:00 +6°C° 0 mm 2 mps 737 mmHg 48%
    09:00 +7°C° 0 mm 3 mps 736 mmHg 46%
    10:00 +9°C° 0 mm 3 mps 736 mmHg 45%
    11:00 +10°C° 0 mm 3 mps 736 mmHg 43%
    12:00 +10°C° 0.1 mm 3 mps 735 mmHg 46%
    13:00 +11°C° 0.1 mm 4 mps 735 mmHg 50%
    14:00 +11°C° 0.1 mm 4 mps 735 mmHg 53%
    15:00 +10°C° 0.1 mm 3 mps 734 mmHg 60%
    16:00 +9°C° 0.1 mm 3 mps 734 mmHg 66%
    17:00 +9°C° 0.1 mm 2 mps 734 mmHg 73%
    18:00 +8°C° 0.2 mm 2 mps 734 mmHg 78%
    19:00 +7°C° 0.2 mm 2 mps 733 mmHg 84%
    20:00 +6°C° 0.2 mm 2 mps 733 mmHg 89%
    21:00 +6°C° 0 mm 2 mps 733 mmHg 91%
    22:00 +6°C° 0 mm 2 mps 733 mmHg 92%
    23:00 +6°C° 0 mm 2 mps 733 mmHg 94%

    25 April, Wednesday

    Time Temperature Precipitation Wind Pressure Humidity
    00:00 +5°C° 0 mm 2 mps 733 mmHg 95%
    01:00 +5°C° 0 mm 2 mps 732 mmHg 96%
    02:00 +5°C° 0 mm 2 mps 732 mmHg 97%
    03:00 +4°C° 0 mm 2 mps 732 mmHg 97%
    04:00 +4°C° 0 mm 2 mps 732 mmHg 97%
    05:00 +4°C° 0 mm 2 mps 732 mmHg 97%
    06:00 +5°C° 0 mm 2 mps 731 mmHg 92%
    07:00 +5°C° 0 mm 3 mps 731 mmHg 87%
    08:00 +7°C° 0 mm 3 mps 731 mmHg 83%
    09:00 +7°C° 0.8 mm 3 mps 731 mmHg 85%
    10:00 +6°C° 0.8 mm 4 mps 730 mmHg 86%
    11:00 +6°C° 0.8 mm 4 mps 730 mmHg 88%
    12:00 +6°C° 0.3 mm 4 mps 730 mmHg 86%
    13:00 +7°C° 0.3 mm 4 mps 729 mmHg 85%
    14:00 +8°C° 0.3 mm 4 mps 729 mmHg 83%
    15:00 +8°C° 0.4 mm 4 mps 729 mmHg 78%
    16:00 +10°C° 0.4 mm 4 mps 729 mmHg 74%
    17:00 +10°C° 0.4 mm 4 mps 729 mmHg 69%
    18:00 +9°C° 0 mm 3 mps 730 mmHg 75%
    19:00 +7°C° 0 mm 3 mps 730 mmHg 82%
    20:00 +5°C° 0 mm 2 mps 730 mmHg 88%
    21:00 +5°C° 0 mm 2 mps 730 mmHg 90%
    22:00 +4°C° 0 mm 2 mps 730 mmHg 92%
    23:00 +4°C° 0 mm 2 mps 730 mmHg 93%

    26 April, Thursday

    Time Temperature Precipitation Wind Pressure Humidity
    00:00 +4°C° 0 mm 2 mps 730 mmHg 94%
    01:00 +3°C° 0 mm 2 mps 730 mmHg 94%
    02:00 +3°C° 0 mm 2 mps 730 mmHg 94%
    03:00 +3°C° 0 mm 2 mps 730 mmHg 94%
    04:00 +4°C° 0 mm 1 mps 729 mmHg 93%
    05:00 +4°C° 0 mm 1 mps 729 mmHg 93%
    06:00 +5°C° 0 mm 2 mps 729 mmHg 88%
    07:00 +6°C° 0 mm 2 mps 729 mmHg 83%
    08:00 +7°C° 0 mm 2 mps 729 mmHg 78%
    09:00 +8°C° 0.1 mm 3 mps 729 mmHg 74%
    10:00 +9°C° 0.1 mm 3 mps 730 mmHg 70%
    11:00 +10°C° 0.1 mm 4 mps 730 mmHg 66%
    12:00 +10°C° 0.2 mm 4 mps 730 mmHg 63%
    13:00 +11°C° 0.2 mm 4 mps 730 mmHg 60%
    14:00 +10°C° 0.2 mm 5 mps 731 mmHg 56%
    15:00 +12°C° 0 mm 4 mps 731 mmHg 53%
    16:00 +12°C° 0 mm 4 mps 731 mmHg 50%
    17:00 +12°C° 0 mm 3 mps 732 mmHg 47%
    18:00 +10°C° 0 mm 3 mps 732 mmHg 55%
    19:00 +8°C° 0 mm 2 mps 733 mmHg 63%
    20:00 +7°C° 0 mm 2 mps 733 mmHg 71%
    21:00 +6°C° 0 mm 2 mps 734 mmHg 75%
    22:00 +5°C° 0 mm 2 mps 734 mmHg 79%
    23:00 +5°C° 0 mm 2 mps 734 mmHg 83%

    27 April, Friday

    Time Temperature Precipitation Wind Pressure Humidity
    00:00 +5°C° 0 mm 2 mps 735 mmHg 84%
    01:00 +5°C° 0 mm 2 mps 735 mmHg 86%
    02:00 +4°C° 0 mm 2 mps 735 mmHg 88%
    03:00 +4°C° 0 mm 2 mps 735 mmHg 89%
    04:00 +4°C° 0 mm 2 mps 735 mmHg 90%
    05:00 +4°C° 0 mm 2 mps 736 mmHg 91%
    06:00 +5°C° 0 mm 3 mps 736 mmHg 85%
    07:00 +7°C° 0 mm 3 mps 736 mmHg 78%
    08:00 +9°C° 0 mm 3 mps 736 mmHg 72%
    09:00 +10°C° 0.4 mm 3 mps 736 mmHg 70%
    10:00 +10°C° 0.4 mm 4 mps 736 mmHg 69%
    11:00 +11°C° 0.4 mm 4 mps 736 mmHg 67%
    12:00 +11°C° 0.4 mm 3 mps 736 mmHg 69%
    13:00 +11°C° 0.4 mm 3 mps 736 mmHg 72%
    14:00 +11°C° 0.4 mm 3 mps 736 mmHg 74%
    15:00 +12°C° 0.4 mm 2 mps 736 mmHg 77%
    16:00 +10°C° 0.4 mm 2 mps 735 mmHg 80%
    17:00 +10°C° 0.4 mm 2 mps 735 mmHg 83%
    18:00 +10°C° 0.1 mm 1 mps 735 mmHg 87%
    19:00 +9°C° 0.1 mm 1 mps 735 mmHg 91%
    20:00 +8°C° 0.1 mm 1 mps 735 mmHg 95%
    21:00 +8°C° 0.1 mm 1 mps 735 mmHg 95%
    22:00 +8°C° 0.1 mm 1 mps 735 mmHg 96%
    23:00 +7°C° 0.1 mm 1 mps 735 mmHg 96%
    Show more